Weather Roundup
Issued by NWS Chicago, IL

Home | Current Version | Previous Version | Text Only | Print | Product List | Glossary On
Versions: 1 2 3 4 5 6 7 8 9 10 11 12 13 14 15 16 17 18 19 20 21 22 23 24 25 26 27 28 29 30 31 32 33 34 35 36 37 38 39 40 41 42 43 44 45 46 47 48 49 50
000
NZUS59 KLOT 241307
HRRLOT

CHICAGO AREA WEATHER ROUNDUP
NATIONAL WEATHER SERVICE CHICAGO/ROMEOVILLE IL
800 AM CDT FRI MAR 24 2017

NOTE: "FAIR" INDICATES FEW OR NO CLOUDS BELOW 12,000 FEET WITH NO
SIGNIFICANT WEATHER AND/OR OBSTRUCTIONS TO VISIBILITY.

* THESE STATIONS ARE NOT UNDER NWS QUALITY CONTROL. THEY ALSO MAY NOT
  REPORT WEATHER SUCH AS PRECIPITATION OR FOG.

ILZ005-006-012>014-019>023-241400-
NORTHEAST ILLINOIS

CITY           SKY/WX    TMP DP  RH WIND       PRES   REMARKS
OHARE          CLOUDY    55  45  68 S15       29.91S
MIDWAY         PTSUNNY   55  46  71 S14G23    29.94S
AURORA         SUNNY     48  42  80 S9        29.93R
LANSING*       CLOUDY    53  47  82 S15G22    29.97S
JOLIET*        SUNNY     56  48  74 S14G20    29.95R
WAUKEGAN       MOSUNNY   53  45  74 SW16G23   29.88S
DUPAGE AIRPORT SUNNY     50  45  83 S15       29.92R
WHEELING       CLOUDY    54  47  77 S12       29.92S
KANKAKEE*      SUNNY     53  46  75 S16       29.99S
MORRIS*        SUNNY     54  47  75 S16       29.93S
LEWIS AIRPORT* SUNNY     55  49  83 S17G26    29.94S
NORTHERLY ISL    N/A     55  44  66 S15         N/A
$$

WIZ051-052-058>065-066-070>072-241400-
SOUTHEAST WISCONSIN

CITY           SKY/WX    TMP DP  RH WIND       PRES   REMARKS
MILWAUKEE      PTSUNNY   42  35  76 CALM      29.92R
KENOSHA*       MOSUNNY   52  43  71 W3        29.90R
RACINE*        CLOUDY    45  38  76 N6        29.93R
WAUKESHA       PTSUNNY   46  39  76 CALM      29.91R
WEST BEND      CLOUDY    39  37  93 CALM      29.89F
$$

INZ001>003-010>013-019-020-241400-
NORTHWEST INDIANA

CITY           SKY/WX    TMP DP  RH WIND       PRES   REMARKS
GARY*          PTSUNNY   57  43  58 S15G28    29.96S
MICHIGAN CITY* NOT AVBL
RENSSELAER*    NOT AVBL
VALPARAISO     MOSUNNY   55  47  74 SW16      30.00R
$$

LMZ740>746-241400-
SOUTHERN LAKE MICHIGAN

STATION/POSITION TIME  SKY/WX   TEMP WIND        PRES    VSBY
                                AIR  DIR/SP/G
                 (UTC)          (F)  (DEG/KT/KT) (MB)    (MI)
HARRISON CRIB    1240            55  210/ 29/ 33   N/A
BURNHAM HARBOR   1300            56  210/ 13/ 17   N/A
CALUMET HARBOR   1242            54  190/ 12/ 17 1013.3R
BURNS HARBOR     1240            55  190/ 22/ 28 1014.6S
MICHIGAN CITY    1240            56  170/ 23/ 30   N/A
$$

ABBREVIATIONS USED IN REMARKS
   TC - TEMPERATURE IN CELSIUS
  WCI - WIND CHILL INDEX
   HX - HEAT INDEX
  VSB - VISIBILITY
$$



USA.gov is the U.S. government's official web portal to all federal, state and local government web resources and services.